Location: ??????-???
(48.4261°N, 37.7652°E)
Time: 20:37:59
(UTC+00:00)

STARLINK-80 - Pass Details

Date: 07 June 2020
Orbit: 487 x 491 km, 53.0° (Epoch: 06 July)

Event Time Altitude Azimuth Distance (km) Brightness Sun altitude
Exits shadow 00:20:46 - 270° (W) 2,429 6.5 -9.0°
Reaches altitude 10° 00:22:40 10° 277° (W) 1,687 5.8 -8.8°
Maximum altitude 00:26:20 44° 350° (N) 691 4.5 -8.4°
Drops below altitude 10° 00:30:00 10° 64° (ENE) 1,688 7.4 -8.0°
Sets 00:32:15 0° 71° (ENE) 2,570 8.2 -7.7°
